Regional Weather Roundup
Issued by NWS

Home | Current Version | Previous Version | Graphics & Text | Print | Product List | Glossary On
Versions: 1 2 3 4 5 6 7 8 9 10 11 12 13 14 15 16 17 18 19 20 21 22 23 24 25 26 27 28 29 30 31 32 33 34 35 36 37 38 39 40 41 42 43 44 45 46 47 48 49 50
000
ASUS43 KLOT 190508
RWRIL

ILLINOIS REGIONAL WEATHER ROUNDUP
NATIONAL WEATHER SERVICE CHICAGO/ROMEOVILLE IL
1100 PM CST SUN FEB 18 2018

NOTE: "FAIR" INDICATES FEW OR NO CLOUDS BELOW 12,000 FEET WITH NO
SIGNIFICANT WEATHER AND/OR OBSTRUCTIONS TO VISIBILITY.

* THESE STATIONS ARE NOT UNDER NWS QUALITY CONTROL. THEY ALSO MAY NOT
  REPORT WEATHER SUCH AS PRECIPITATION OR FOG.

ILZ001-002-007-009-015-016-024-190600-
NORTHWEST ILLINOIS

CITY           SKY/WX    TMP DP  RH WIND       PRES   REMARKS
MOLINE         CLOUDY    43  32  65 S12       29.79F
STERLING*      CLOUDY    39  32  76 S8        29.84F WCI  33
SAVANNA*       CLOUDY    37  32  81 S9        29.83S WCI  31
$$

ILZ003-004-008-010-011-017-018-190600-
NORTH CENTRAL ILLINOIS

CITY           SKY/WX    TMP DP  RH WIND       PRES   REMARKS
ROCKFORD       CLOUDY    37  31  78 S14       29.87S WCI  28
FREEPORT*      CLOUDY    36  32  85 S7        29.85F WCI  30
ROCHELLE*      CLOUDY    36  32  87 S10       29.86R WCI  28
DE KALB*       CLOUDY    36  32  85 S15       29.87R WCI  27
PERU*          CLOUDY    37  31  79 S15       29.87R WCI  28
$$

ILZ005-006-012>014-019>023-190600-
NORTHEAST ILLINOIS

CITY           SKY/WX    TMP DP  RH WIND       PRES   REMARKS
CHICAGO-OHARE  MOCLDY    39  30  70 S16       29.87F WCI  30
CHICAGO-MIDWAY MOCLDY    40  31  70 S15       29.89F
AURORA         MOCLDY    38  31  76 S20       29.83F WCI  28
LANSING*       FAIR      40  32  75 S21       29.92F
JOLIET*        MOCLDY    40  32  73 S12G20    29.87F
WAUKEGAN       FAIR      39  30  70 S12       29.87F WCI  32
DUPAGE AIRPORT FAIR      37  31  78 SE13      29.84F WCI  29
KANKAKEE*      MOCLDY    38  31  75 SE9       29.91F WCI  31
WHEELING       FAIR      39  31  72 S14       29.88F WCI  31
MORRIS*        MOCLDY    38  32  77 S17       29.85F WCI  29
ROMEOVILLE*    MOCLDY    36  31  82 S16       29.86F WCI  26
NORTHERLY ISL    N/A     39  29  67 S13         N/A  WCI  31
$$

LMZ740>746-190600-
SOUTHERN LAKE MICHIGAN

STATION/POSITION SKY/WX   TEMP    WIND        PRES    VSBY  WAVE
                          AIR SEA DIR/SP/G                  HT/PER
                          (F)     (DEG/KT/KT) (MB)    (MI)  (FT/S)
HARRISON CRIB              39     180/ 21/ 22   N/A
BURNHAM HARBOR             40     170/ 10/ 16   N/A
CALUMET HARBOR             40     170/ 12/ 17 1012.2F
BURNS HARBOR               40     170/ 18/ 26 1013.5F
MICHIGAN CITY              40     150/ 21/ 25   N/A
$$

ILZ025>027-034>036-040-047-049-050-058-095>099-190600-
WEST-CENTRAL ILLINOIS

CITY           SKY/WX    TMP DP  RH WIND       PRES   REMARKS
QUINCY         CLOUDY    48  35  60 S12       29.80R
GALESBURG*     CLOUDY    41  35  78 SE5       29.84S
MACOMB*        LGT RAIN  43  35  74 S6        29.85R
JACKSONVILLE*  CLOUDY    46  36  67 S16G23    29.82F
PITTSFIELD*    CLOUDY    48  39  69 S22G30    29.81S
$$

ILZ028>032-037-038-041>044-048-051>054-059>061-190600-
CENTRAL ILLINOIS

CITY           SKY/WX    TMP DP  RH WIND       PRES   REMARKS
PONTIAC        MOCLDY    41  36  82 S24G33    29.87F
BLOOMINGTON    MOCLDY    41  34  76 S23       29.87F
DECATUR        CLOUDY    45  34  65 S18G26    29.91S
PEORIA         CLOUDY    42  34  73 S15G28    29.83F
LACON*         DRIZZLE   42  34  74 S13G22    29.84R
LINCOLN*       CLOUDY    45  36  71 S14G21    29.87S
SPRINGFIELD    CLOUDY    47  35  63 S20G28    29.85F
TAYLORVILLE    CLOUDY    47  36  65 S23G29    29.88F
$$

ILZ033-039-045-046-055>057-062-063-190600-
EAST-CENTRAL ILLINOIS

CITY           SKY/WX    TMP DP  RH WIND       PRES   REMARKS
CHAMPAIGN      MOCLDY    43  34  70 S20       29.92F
DANVILLE*      MOCLDY    43  32  64 S16       29.92F
RANTOUL*       CLOUDY    42  36  78 S14       29.93F
MATTOON        MOCLDY    45  34  65 S16G23    29.94S
PARIS*         MOCLDY    43  35  73 SE14      29.98F
$$

ILZ079-100>102-190600-
SOUTHWEST ILLINOIS

CITY           SKY/WX    TMP DP  RH WIND       PRES   REMARKS
ALTON          CLOUDY    49  40  72 S14G20    29.89F
BELLEVILLE     CLOUDY    51  41  67 S13       29.91S
CAHOKIA*       CLOUDY    51  40  65 S8G22     29.90F
SPARTA*        CLOUDY    51  43  73 S12G24    29.96S
$$

ILZ064>066-069>071-074>076-080>082-084>086-088>090-092>094-190600-
SOUTH-CENTRAL ILLINOIS

CITY           SKY/WX    TMP DP  RH WIND       PRES   REMARKS
CARBONDALE     CLOUDY    52  41  66 S13       29.98F
CAIRO*         CLOUDY    52  46  79 S8        30.03R
EFFINGHAM*     CLOUDY    47  36  63 SE12G17   29.98F
MARION         CLOUDY    52  40  62 S15G22    29.99F
MT. VERNON     CLOUDY    48  37  65 SE3       29.98F
CENTRALIA*     CLOUDY    50  38  63 S12G18    29.95F
SALEM*         CLOUDY    50  35  57 S10       29.96F
METROPOLIS*    CLOUDY    55  45  69 S13       30.03S
$$

ILZ067-068-072-073-078-083-087-091-190600-
SOUTHEAST ILLINOIS

CITY           SKY/WX    TMP DP  RH WIND       PRES   REMARKS
LAWRENCEVILLE  CLOUDY    46  36  68 S9        30.01F
FLORA*         CLOUDY    48  37  65 S13       29.99S
FAIRFIELD*     CLOUDY    47  37  67 SE5       29.99F
HARRISBURG*    CLOUDY    51  40  64 S8        30.01F
ROBINSON*      CLOUDY    45  34  66 SE8       30.01F
CARMI*         CLOUDY    45  38  78 S7        30.02S
$$

ABBREVIATIONS USED IN REMARKS
   TC - TEMPERATURE IN CELSIUS
  WCI - WIND CHILL INDEX
   HX - HEAT INDEX
  VSB - VISIBILITY
$$





USA.gov is the U.S. government's official web portal to all federal, state and local government web resources and services.